Santa Fe, NM

5:44 PM MDT on August 19, 2019 (GMT -0600)
Santa Fe Municipal

Weather History for KSAF - July, 2019

Change the Weather History Date:

Tuesday, July 16, 2019

  Actual Average Record
Temperature  
Mean Temperature 78 °F -  
Max Temperature 93 °F 95 °F 97 °F (2016)
Min Temperature 64 °F 60 °F 51 °F (2005)
Cooling Degree Days 14    
Growing Degree Days 28 (Base 50)    
Moisture  
Dew Point 51 °F    
Average Humidity 45    
Maximum Humidity 84    
Minimum Humidity 17    
Precipitation  
Precipitation 0.01 in - - ()
Sea Level Pressure  
Sea Level Pressure 29.90 in    
Wind  
Wind Speed 7 mph (ENE)    
Max Wind Speed 21 mph    
Max Gust Speed 30 mph    
Visibility 10 miles    
Events Rain , Thunderstorm    
Averages and records for this station are not official NWS values.
T = Trace of Precipitation, MM = Missing Value Source: NWS Daily Summary

Daily Weather History Graph

Daily Weather History Graph

Search for Another Location

Airport or City:

Astronomy

Jul. 16, 2019 Rise Set
Actual Time 6:00 AM MDT 8:19 PM MDT
Civil Twilight 5:31 AM MDT 8:48 PM MDT
Nautical Twilight 4:55 AM MDT 9:24 PM MDT
Astronomical Twilight 4:16 AM MDT 10:03 PM MDT
Moon 8:27 PM MDT (7/16) 5:42 AM MDT (7/16)
Length of Visible Light 15h 17m
Length of Day
14h 19m
Full, 100% of the Moon is Illuminated
Jul 16
Full
Jul 16
Full
Jul 24
Last Quarter
Jul 31
New
Aug 7
First Quarter

Hourly Weather History & Observations

Time (MDT) Temp. Dew Point Humidity Pressure Visibility Wind Dir Wind Speed Gust Speed Precip Events Conditions
12:53 AM 70.0 °F 52.0 °F 53% 29.85 in 10.0 mi West 4.6 mph - N/A   Clear
1:53 AM 70.0 °F 51.1 °F 51% 29.84 in 10.0 mi Variable 4.6 mph - N/A   Partly Cloudy
2:53 AM 68.0 °F 53.1 °F 59% 29.82 in 10.0 mi East 5.8 mph - N/A   Clear
3:53 AM 69.1 °F 53.1 °F 57% 29.82 in 10.0 mi Calm Calm - N/A   Clear
4:53 AM 66.9 °F 51.1 °F 57% 29.83 in 10.0 mi Calm Calm - N/A   Clear
5:53 AM 64.0 °F 51.1 °F 63% 29.86 in 10.0 mi North 6.9 mph - N/A   Clear
6:53 AM 66.9 °F 53.1 °F 61% 29.88 in 10.0 mi Calm Calm - N/A   Clear
7:53 AM 72.0 °F 51.1 °F 48% 29.88 in 10.0 mi NNE 10.4 mph - N/A   Clear
8:53 AM 75.9 °F 50.0 °F 40% 29.88 in 10.0 mi NNE 6.9 mph - N/A   Partly Cloudy
9:53 AM 81.0 °F 48.9 °F 33% 29.86 in 10.0 mi Calm Calm - N/A   Clear
10:53 AM 84.0 °F 48.9 °F 29% 29.86 in 10.0 mi North 4.6 mph - N/A   Clear
11:53 AM 86.0 °F 46.9 °F 26% 29.84 in 10.0 mi North - - N/A   Clear
12:53 PM 89.1 °F 46.0 °F 22% 29.81 in 10.0 mi West 6.9 mph - N/A   Clear
1:53 PM 90.0 °F 43.0 °F 19% 29.79 in 10.0 mi Variable 3.5 mph - N/A   Clear
2:48 PM 93.2 °F 42.8 °F 17% 30.13 in 10.0 mi NNE 9.2 mph - N/A Thunderstorm Clear
2:53 PM 91.9 °F 42.1 °F 18% 29.76 in 10.0 mi NNE 5.8 mph - N/A Thunderstorm Clear
3:53 PM 87.1 °F 45.0 °F 23% 29.78 in 10.0 mi ENE 16.1 mph 29.9 mph N/A Thunderstorm Mostly Cloudy
4:53 PM 86.0 °F 45.0 °F 24% 29.76 in 10.0 mi ESE 20.7 mph - N/A   Scattered Clouds
5:33 PM 84.0 °F 46.0 °F 26% 30.13 in 10.0 mi SE 18.4 mph - N/A Thunderstorm Partly Cloudy
5:53 PM 82.9 °F 46.9 °F 28% 29.81 in 10.0 mi SSE 18.4 mph 24.2 mph N/A   Mostly Cloudy
6:02 PM 82.9 °F 46.9 °F 28% 30.15 in 10.0 mi SSE 12.7 mph 21.9 mph N/A Thunderstorm Overcast
6:27 PM 75.0 °F 53.1 °F 46% 30.19 in 10.0 mi WSW 17.3 mph 26.5 mph 0.00 in Rain , Thunderstorm Light Rain
6:53 PM 72.0 °F 54.0 °F 53% 29.93 in 10.0 mi South 10.4 mph - 0.00 in Rain , Thunderstorm Light Thunderstorms and Rain
7:53 PM 66.9 °F 57.0 °F 70% 29.96 in 10.0 mi SE 10.4 mph - 0.00 in Rain Light Rain
8:53 PM 68.0 °F 57.9 °F 70% 29.95 in 10.0 mi Calm Calm - 0.01 in   Mostly Cloudy
9:53 PM 66.9 °F 59.0 °F 76% 29.94 in 10.0 mi ESE 6.9 mph - 0.00 in Rain Light Rain
10:53 PM 66.0 °F 61.0 °F 84% 29.91 in 10.0 mi NW 4.6 mph - 0.00 in   Mostly Cloudy
11:53 PM 64.9 °F 59.0 °F 81% 29.90 in 10.0 mi NNE 11.5 mph - N/A   Clear